Flag for Japan Weather past 2 weeks in Kumamoto, Japan

Now
57 °F

Cool.


Feels Like: 57 °F
Forecast: 52 / 76 °F
Wind: 1 mph from North

Location: Kumamoto

Current Time: May 6, 2015 at 6:27:39 AM

Latest Report: May 6, 2015 at 5:00 AM


Visibility: N/A

Pressure: 29.88 "Hg

Humidity: 77%

Dew point: 50 °F

Location of KumamotoLocation

Historic Weather in Kumamoto — Graph

°F

Kumamoto temperature yesterday

Maximum temperature yesterday: 79 °F (at 2:00 PM)
Minimum temperature yesterday: 55 °F (at 6:00 AM)
Average temperature yesterday: 67 °F

Past Weeks' High & Low Weather Summary

 TemperatureHumidityPressure
High83 °F (May 2, 2:00 PM)100% (Apr 30, 4:00 AM)30.21 "Hg (Apr 30, 4:00 AM)
Low47 °F (Apr 26, 6:00 AM)14% (Apr 25, 3:00 PM)29.70 "Hg (May 3, 7:00 PM)
Average66 °F61%29.97 "Hg
* Reported Apr 21 5:00 AM — May 6 5:00 AM, Kumamoto, Weather by CustomWeather, © 2015

Note: Actual official high and low records may vary slightly from our data, if they occured in-between our weather recording intervals... More about our weather records

Advertising

Kumamoto weather history for previous 24 hours

 ConditionsComfort  
Time TempWeatherWind HumidityBarometerVisibility
5:00 AM
Wed, May 6
57 °FCool.1 mph77%29.88 "HgN/A
4:00 AM58 °FCool.1 mph83%29.88 "HgN/A
3:00 AM58 °FOvercast.3 mph79%29.86 "Hg12 mi
2:00 AM58 °FCool.3 mph78%29.86 "HgN/A
1:00 AM60 °FCool.2 mph67%29.90 "HgN/A
12:00 AM62 °FCool.3 mph66%29.90 "HgN/A
11:00 PM
Tue, May 5
62 °FMild.3 mph66%29.89 "HgN/A
10:00 PM64 °FMild.3 mph61%29.88 "HgN/A
9:00 PM65 °FPassing clouds.3 mph61%29.86 "Hg12 mi
8:00 PM68 °FMild.3 mph53%29.83 "HgN/A
7:00 PM69 °FMild.9 mph51%29.81 "HgN/A
6:00 PM72 °FPassing clouds.8 mph38%29.79 "Hg19 mi
5:00 PM74 °FMild.8 mph34%29.79 "HgN/A
4:00 PM77 °FMild.9 mph30%29.80 "HgN/A
3:00 PM78 °FPassing clouds.9 mph26%29.80 "Hg16 mi
2:00 PM79 °FPleasantly warm.7 mph33%29.80 "HgN/A
1:00 PM77 °FMild.5 mph40%29.81 "HgN/A
12:00 PM76 °FSunny.6 mph28%29.83 "Hg12 mi
11:00 AM73 °FMild.2 mph29%29.84 "HgN/A
10:00 AM71 °FMild.3 mph34%29.85 "HgN/A
9:00 AM66 °FSunny.1 mph59%29.85 "Hg9 mi
8:00 AM61 °FCool.2 mph72%29.85 "HgN/A
7:00 AM58 °FCool.3 mph84%29.85 "HgN/A
6:00 AM55 °FScattered clouds.3 mph89%29.83 "Hg9 mi
Weather by CustomWeather, © 2015

See weather overviewHow to use our weather pages